#timestamp,LO_Frequency,Hit 
1498838415.6,286046991.3,N
1498838435.4,286046991.0,N
1498838455.3,286046989.3,N
1498838475.1,286046987.6,N
1498838495.8,286046989.9,N
1498838515.7,286046991.2,N
1498838535.5,286046988.9,N
1498838555.3,286046988.9,N
1498838575.2,286046990.9,N
1498838595.9,286046993.1,N
1498838615.7,286046991.2,N
1498838635.6,286046988.8,N
1498838655.4,286046991.1,N
1498838675.2,286046990.7,N
1498838695.1,286046991.0,N
1498838696.0,286046991.0,N
1498838715.8,286046988.6,N
1498838735.6,286046988.6,N
1498838755.4,286046988.9,N
1498838775.3,286046990.9,N
1498838795.1,286046992.0,N
1498838815.8,286046993.1,N
1498838835.7,286046991.3,N
1498838855.5,286046990.6,N
1498838875.3,286046992.5,N
1498838895.2,286046990.3,N
1498838915.9,286046988.6,N
1498838935.7,286046988.5,N
1498838955.6,286046993.2,N
1498838975.4,286046989.1,N
1498838995.2,286046991.6,N
1498839015.0,286046989.1,N
1498839015.9,286046989.1,N
1498839035.8,286046989.6,N
1498839055.6,286046988.6,N
1498839075.4,286046988.7,N
1498839095.3,286046991.2,N
1498839115.1,286046989.2,N
1498839135.8,286046988.5,N
1498839155.7,286046989.3,N
1498839175.5,286046991.4,N
1498839195.3,286046991.0,N
1498839215.2,286046990.2,N
1498839235.9,286046991.1,N
1498839255.7,286046990.6,N
1498839275.6,286046991.3,N
1498839295.4,286046991.6,N
1498839315.2,286046989.1,N
1498839335.1,286046986.9,N
1498839336.0,286046986.9,N
1498839355.8,286046989.7,N
1498839375.6,286046991.3,N
1498839395.4,286046992.7,N
1498839415.3,286046988.7,N
1498839435.1,286046993.1,N
1498839455.8,286046990.3,N
1498839475.7,286046991.6,N
1498839495.5,286046988.6,N
1498839515.3,286046987.5,N
1498839535.2,286046987.3,N
1498839555.9,286046989.2,N
1498839575.7,286046989.3,N
1498839595.6,286046988.9,N
1498839615.4,286046988.9,N
1498839635.2,286046989.2,N
1498839655.1,286046989.6,N
1498839656.0,286046989.6,N
1498839675.8,286046990.0,N
1498839695.6,286046988.9,N
1498839715.5,286046990.2,N
1498839735.3,286046992.6,N
1498839755.1,286046990.2,N
1498839775.8,286046993.2,N
1498839795.7,286046993.2,N
1498839815.5,286046992.8,N
1498839835.3,286046991.2,N
1498839855.2,286046991.2,N
1498839875.0,286046993.2,N
1498839875.9,286046993.2,N
1498839895.7,286046992.5,N
1498839915.6,286046992.7,N
1498839935.4,286046991.2,N
1498839955.2,286046990.1,N
1498839975.1,286046993.1,N
1498839976.0,286046993.1,N
1498839995.8,286046989.2,N
1498840015.6,286046987.5,N
1498840035.5,286046989.4,N
1498840055.3,286046989.8,N
1498840075.1,286046987.8,N
1498840095.9,286046988.7,N
1498840115.7,286046988.8,N
1498840135.5,286046988.8,N
1498840155.3,286046989.5,N
1498840175.2,286046988.6,N
1498840195.0,286046988.1,N
1498840195.9,286046988.1,N
1498840215.7,286046988.4,N
1498840235.6,286046988.8,N
1498840255.4,286046988.2,N
1498840275.2,286046989.9,N
1498840295.1,286046989.9,N
1498840296.0,286046989.9,N
1498840315.8,286046989.5,N
1498840335.6,286046989.6,N
1498840355.5,286046988.3,N
1498840375.3,286046987.5,N
1498840395.1,286046988.4,N
1498840415.9,286046987.2,N
1498840435.7,286046987.4,N
1498840455.5,286046988.5,N
1498840475.4,286046989.0,N
1498840495.2,286046988.9,N
1498840515.0,286046989.2,N
1498840515.9,286046989.2,N
1498840535.8,286046990.9,N
1498840555.6,286046991.1,N
1498840575.4,286046991.3,N
1498840595.2,286046989.3,N
1498840615.1,286046989.5,N
1498840616.0,286046989.5,N
1498840635.8,286046987.0,N
1498840655.6,286046989.1,N
1498840675.5,286046989.0,N
1498840695.3,286046988.6,N
1498840715.1,286046989.2,N
1498840735.9,286046990.0,N
1498840755.7,286046988.5,N
1498840775.5,286046989.3,N
1498840795.4,286046988.4,N
1498840815.2,286046988.2,N
1498840835.0,286046985.6,N
1498840835.9,286046985.6,N
1498840855.8,286046986.8,N
1498840875.6,286046985.7,N
1498840895.4,286046983.8,N
1498840915.3,286046987.8,N
1498840935.1,286046987.9,N
1498840936.0,286046987.9,N
1498840955.8,286046987.1,N
1498840975.6,286046989.3,N
1498840995.5,286046988.5,N
1498841015.3,286046991.1,N
1498841035.1,286046990.7,N
1498841055.9,286046990.9,N
1498841075.7,286046991.1,N
1498841095.5,286046991.1,N
1498841115.4,286046989.6,N
1498841135.2,286046988.6,N
1498841155.0,286046989.3,N
1498841155.9,286046989.3,N
1498841175.8,286046988.5,N
1498841195.6,286046989.0,N
1498841215.4,286046989.4,N
1498841235.3,286046987.5,N
1498841255.1,286046987.0,N
1498841256.0,286046987.0,N
1498841275.8,286046987.3,N
1498841295.7,286046989.2,N
1498841315.5,286046990.0,N
1498841335.3,286046987.7,N
1498841355.2,286046987.4,N
1498841375.9,286046988.9,N
1498841395.7,286046988.6,N
1498841415.5,286046987.4,N
1498841435.4,286046987.0,N
1498841455.2,286046989.1,N
1498841475.0,286046993.1,N
1498841475.9,286046993.1,N
1498841495.8,286046990.7,N
1498841515.6,286046988.6,N
1498841535.4,286046989.4,N
1498841555.3,286046986.9,N
1498841575.1,286046991.2,N
1498841576.0,286046991.2,N
1498841595.8,286046991.3,N
1498841615.7,286046990.9,N
1498841635.5,286046991.3,N
1498841655.3,286046991.3,N
1498841675.2,286046991.1,N
1498841695.9,286046991.5,N
1498841715.7,286046991.6,N
1498841735.5,286046991.6,N
1498841755.4,286046990.4,N
1498841775.2,286046990.7,N
1498841795.0,286046988.5,N
1498841795.9,286046988.5,N
1498841815.8,286046988.6,N
1498841835.6,286046988.6,N
1498841855.4,286046989.0,N
1498841875.3,286046991.2,N
1498841895.1,286046992.3,N
1498841915.8,286046993.7,N
1498841935.7,286046998.5,N
1498841955.5,286046998.8,N
1498841975.3,286047000.2,N
1498841995.2,286046999.7,N
